Location: Quesnel
(52.9830°N, 122.4830°W)
Time: 05:15:41
(UTC-07:00)

ISS - All Passes

Search period start: 25 September 2016 00:00
Search period end: 05 October 2016 00:00
Orbit: 400 x 410 km, 51.6° (Epoch: 25 September)

Date Brightness Start Highest point End Pass type
(mag) Time Alt. Az. Time Alt. Az. Time Alt. Az.
25 Sep - 00:16:48 10° WSW 00:20:01 56° SSE 00:23:16 10° E night (unlit)
25 Sep - 01:53:07 10° W 01:56:24 67° S 01:59:41 10° ESE night (unlit)
25 Sep - 03:29:40 10° W 03:32:38 31° SSW 03:35:35 10° SE night (unlit)
25 Sep - 21:50:22 10° S 21:52:08 14° SE 21:53:54 10° ESE night (unlit)
25 Sep - 23:24:54 10° SW 23:28:02 44° SSE 23:31:12 10° E night (unlit)
26 Sep - 01:01:05 10° W 01:04:22 71° S 01:07:39 10° E night (unlit)
26 Sep - 02:37:34 10° W 02:40:41 42° SSW 02:43:49 10° SE night (unlit)
26 Sep - 04:14:58 10° WSW 04:16:34 13° SW 04:18:09 10° S night (unlit)
26 Sep - 22:33:06 10° SW 22:36:04 33° SSE 22:39:04 10° E night (unlit)
27 Sep - 00:09:03 10° WSW 00:12:19 68° S 00:15:36 10° E night (unlit)
27 Sep - 01:45:29 10° W 01:48:42 54° SSW 01:51:55 10° ESE night (unlit)
27 Sep - 03:22:18 10° W 03:24:44 19° SSW 03:27:10 10° SSE night (unlit)
27 Sep - 21:41:29 10° SSW 21:44:09 23° SSE 21:46:50 10° E night (unlit)
27 Sep - 23:17:02 10° WSW 23:20:16 60° SSE 23:23:32 10° E night (unlit)
28 Sep - 00:53:23 10° W 00:56:39 64° S 00:59:55 10° ESE night (unlit)
28 Sep - 02:30:00 10° W 02:32:50 27° SSW 02:35:41 10° SSE night (unlit)
28 Sep - 20:50:10 10° S 20:52:16 16° SE 20:54:23 10° ESE visible
28 Sep - 22:25:04 10° WSW 22:28:14 48° SSE 22:31:25 10° E night (unlit)
29 Sep - 00:01:19 10° W 00:04:35 70° S 00:07:51 10° E night (unlit)
29 Sep - 01:37:47 10° W 01:40:52 37° SSW 01:43:56 10° SE night (unlit)
29 Sep - 03:15:45 10° WSW 03:16:40 11° SW 03:17:36 10° SSW night (unlit)
29 Sep - 19:59:46 10° SSE 20:00:26 10° SE 20:01:06 10° SE visible
29 Sep - 21:33:11 10° SW 21:36:13 36° SSE 21:39:16 10° E visible
29 Sep - 23:09:14 10° W 23:12:30 70° S 23:15:46 10° E night (unlit)
30 Sep - 00:45:39 10° W 00:48:51 49° SSW 00:52:02 10° ESE night (unlit)
30 Sep - 02:22:39 10° WSW 02:24:50 17° SW 02:27:00 10° S night (unlit)
30 Sep - 20:41:27 10° SSW 20:44:14 26° SSE 20:47:03 10° E visible
30 Sep - 22:17:10 10° WSW 22:20:24 64° S 22:23:39 10° E visible
30 Sep - 23:53:32 10° W 23:56:47 61° S 00:00:02 10° ESE night (unlit)
01 Oct - 01:30:12 10° W 01:32:54 24° SSW 01:35:37 10° SSE night (unlit)
01 Oct - 19:49:56 10° SSW 19:52:17 19° SE 19:54:39 10° E visible
01 Oct - 21:25:08 10° WSW 21:28:19 53° SSE 21:31:32 10° E visible
01 Oct - 23:01:25 10° W 23:04:41 69° S 23:07:57 10° ESE night (unlit)
02 Oct - 00:37:56 10° W 00:40:56 33° SSW 00:43:56 10° SE night (unlit)
02 Oct - 18:58:57 10° SSE 19:00:24 12° SE 19:01:51 10° ESE daylight
02 Oct - 20:33:10 10° SW 20:36:15 41° SSE 20:39:22 10° E visible
02 Oct - 22:09:18 10° W 22:12:33 71° S 22:15:50 10° E visible
02 Oct - 23:45:44 10° W 23:48:54 45° SSW 23:52:02 10° SE night (unlit)
03 Oct - 01:22:57 10° WSW 01:24:48 14° SW 01:26:39 10° S night (unlit)
03 Oct - 19:41:19 10° SW 19:44:13 30° SSE 19:47:08 10° E visible
03 Oct - 21:17:11 10° WSW 21:20:26 67° S 21:23:41 10° E visible
03 Oct - 22:53:34 10° W 22:56:48 57° SSW 23:00:01 10° ESE night (unlit)
04 Oct - 00:30:20 10° W 00:32:53 21° SSW 00:35:25 10° SSE night (unlit)
04 Oct - 18:49:41 10° SSW 18:52:14 21° SSE 18:54:46 10° E daylight
04 Oct - 20:25:05 10° WSW 20:28:18 57° SSE 20:31:32 10° E visible
04 Oct - 22:01:25 10° W 22:04:40 66° S 22:07:55 10° ESE visible
04 Oct - 23:37:58 10° W 23:40:52 29° SSW 23:43:47 10° SE night (unlit)
